Flag for Venezuela Weather past 2 weeks in Caracas, Venezuela

Now
79 °F

Clear.


Feels Like: 82 °F
Forecast: 69 / 80 °F
Wind: 7 mph from Northeast

Location: Caracas / Maiquetia Aerop. Intl. Simon Bolivar

Current Time: Aug 29, 2015 at 2:21:12 AM

Latest Report: Aug 29, 2015 at 1:30 AM


Visibility: 10 mi

Pressure: 29.86 "Hg (27.02 "Hg at 875m altitude)

Humidity: 84%

Dew point: 73 °F

Location of CaracasLocation

Historic Weather in Caracas — Graph

°F

Caracas temperature yesterday

Maximum temperature yesterday: 90 °F (at 3:30 PM)
Minimum temperature yesterday: 79 °F (at 1:30 AM)
Average temperature yesterday: 82 °F

Past Weeks' High & Low Weather Summary

 TemperatureHumidityPressure
High91 °F (Aug 19, 12:30 PM)94% (Aug 22, 9:30 PM)29.98 "Hg (Aug 22, 9:30 PM)
Low75 °F (Aug 19, 7:30 AM)59% (Aug 19, 11:30 AM)29.80 "Hg (Aug 24, 4:30 PM)
Average82 °F77%29.89 "Hg
* Reported Aug 14 12:30 AM — Aug 29 12:30 AM, Caracas, Weather by CustomWeather, © 2015

Note: Actual official high and low records may vary slightly from our data, if they occured in-between our weather recording intervals... More about our weather records

Advertising

Caracas weather history for previous 24 hours

 ConditionsComfort  
Time TempWeatherWind HumidityBarometerVisibility
12:30 AM
Sat, Aug 29
79 °FClear.No wind84%29.89 "Hg10 mi
11:30 PM
Fri, Aug 28
79 °FPassing clouds.No wind84%29.92 "HgN/A
10:30 PM79 °FPassing clouds.No wind84%29.92 "HgN/A
9:30 PM79 °FPassing clouds.No wind89%29.92 "HgN/A
8:30 PM79 °FPassing clouds.2 mph89%29.89 "HgN/A
7:30 PM81 °FPassing clouds.2 mph84%29.86 "HgN/A
6:30 PM84 °FPassing clouds.2 mph79%29.86 "HgN/A
5:30 PM86 °FScattered clouds.3 mph70%29.83 "HgN/A
4:30 PM86 °FScattered clouds.6 mph70%29.83 "HgN/A
3:30 PM90 °FScattered clouds.8 mph63%29.83 "HgN/A
2:30 PM88 °FPartly sunny.10 mph66%29.86 "HgN/A
1:30 PM88 °FPartly sunny.9 mph66%29.86 "HgN/A
12:30 PM86 °FPartly sunny.2 mph70%29.86 "HgN/A
11:30 AM86 °FPartly sunny.7 mph70%29.89 "HgN/A
10:30 AM82 °FScattered clouds.5 mph74%29.89 "HgN/A
9:30 AM81 °FPassing clouds.2 mph84%29.92 "HgN/A
8:30 AM81 °FScattered clouds.1 mph84%29.89 "HgN/A
7:30 AM79 °FScattered clouds.2 mph89%29.86 "HgN/A
6:30 AM79 °FPassing clouds.5 mph89%29.86 "HgN/A
4:30 AM79 °FPassing clouds.2 mph89%29.83 "HgN/A
3:30 AM79 °FPassing clouds.1 mph89%29.80 "HgN/A
2:30 AM79 °FPassing clouds.No wind89%29.83 "HgN/A
Weather by CustomWeather, © 2015

See weather overviewHow to use our weather pages